Location: Newark
(19.2128°S, 49.7858°W)
Time: 05:28:47
(UTC+00:00)

Envisat - Pass Details

Date: 26 August 2019
Orbit: 764 x 766 km, 98.1° (Epoch: 14 September)

Event Time Altitude Azimuth Distance (km) Brightness Sun altitude
Rises 22:52:53 0° 185° (S) 3,251 6.3 -24.9°
Reaches altitude 10° 22:55:28 10° 196° (SSW) 2,319 5.6 -25.5°
Maximum altitude 22:59:47 28° 254° (WSW) 1,412 4.9 -26.6°
Drops below altitude 10° 23:04:04 10° 312° (NW) 2,299 6.1 -27.6°
Sets 23:06:38 0° 323° (NW) 3,218 6.7 -28.2°
